Muskegon, MI

7:18 AM EDT on October 21, 2019 (GMT -0400)
Muskegon County

Weather History for KMKG - August, 2019

Change the Weather History Date:

Thursday, August 1, 2019

  Actual Average Record
Temperature  
Mean Temperature 68 °F 71 °F  
Max Temperature 80 °F 80 °F 92 °F (1975)
Min Temperature 55 °F 62 °F 43 °F (1947)
Degree Days  
Heating Degree Days 0 0  
Month to date heating degree days 0 0  
Since 1 June heating degree days 58 77  
Since 1 July heating degree days 1 11  
Cooling Degree Days 3 6  
Month to date cooling degree days 3 6  
Year to date cooling degree days 369 342  
Since 1 June cooling degree days 366 313  
Growing Degree Days 18 (Base 50)    
Moisture  
Dew Point 52 °F    
Average Humidity 61    
Maximum Humidity 86    
Minimum Humidity 36    
Precipitation  
Precipitation 0.00 in 0.10 in 1.58 in (2002)
Month to date precipitation 0.00 0.10  
Year to date precipitation 24.97 17.29  
Snow  
Snow 0.00 in 0.00 in - ()
Month to date snowfall 0.0 0.0  
Since 1 June snowfall 0.0 0.0  
Since 1 July snowfall 0.0 0.0  
Snow Depth 0.00 in    
Sea Level Pressure  
Sea Level Pressure 30.18 in    
Wind  
Wind Speed 6 mph (NNW)    
Max Wind Speed 14 mph    
Max Gust Speed 18 mph    
Visibility 10 miles    
Events      
T = Trace of Precipitation, MM = Missing Value Source: NWS Daily Summary

Daily Weather History Graph

Daily Weather History Graph

Search for Another Location

Airport or City:

Astronomy

Aug. 01, 2019 Rise Set
Actual Time 6:35 AM EDT 9:06 PM EDT
Civil Twilight 6:02 AM EDT 9:39 PM EDT
Nautical Twilight 5:22 AM EDT 10:19 PM EDT
Astronomical Twilight 4:36 AM EDT 11:04 PM EDT
Moon 6:58 AM EDT (8/1) 9:52 PM EDT (8/1)
Length of Visible Light 15h 36m
Length of Day
14h 31m
New Moon, 0% of the Moon is Illuminated
Aug 1
New Moon
Aug 7
First Quarter
Aug 15
Full
Aug 23
Last Quarter
Aug 30
New

Hourly Weather History & Observations

Time (EDT) Temp. Dew Point Humidity Pressure Visibility Wind Dir Wind Speed Gust Speed Precip Events Conditions
12:55 AM 63.0 °F 54.0 °F 72% 30.17 in 10.0 mi North 6.9 mph - N/A   Clear
1:55 AM 60.1 °F 53.1 °F 78% 30.16 in 10.0 mi Calm Calm - N/A   Clear
2:55 AM 61.0 °F 54.0 °F 78% 30.17 in 10.0 mi Calm Calm - N/A   Clear
3:55 AM 59.0 °F 53.1 °F 81% 30.17 in 10.0 mi Calm Calm - N/A   Clear
4:55 AM 57.0 °F 53.1 °F 87% 30.17 in 10.0 mi ENE 3.5 mph - N/A   Clear
5:55 AM 55.9 °F 51.1 °F 84% 30.18 in 10.0 mi ENE 4.6 mph - N/A   Partly Cloudy
6:55 AM 55.9 °F 51.1 °F 84% 30.19 in 10.0 mi ENE 3.5 mph - N/A   Partly Cloudy
7:55 AM 59.0 °F 53.1 °F 81% 30.21 in 10.0 mi ENE 3.5 mph - N/A   Clear
8:55 AM 64.9 °F 55.0 °F 70% 30.22 in 10.0 mi ESE 6.9 mph - N/A   Clear
9:55 AM 73.0 °F 55.0 °F 53% 30.22 in 10.0 mi ESE 4.6 mph - N/A   Clear
10:55 AM 75.9 °F 53.1 °F 45% 30.22 in 10.0 mi South 3.5 mph - N/A   Clear
11:55 AM 79.0 °F 51.1 °F 38% 30.22 in 10.0 mi Calm Calm - N/A   Partly Cloudy
12:55 PM 78.1 °F 54.0 °F 43% 30.22 in 10.0 mi West 9.2 mph - N/A   Partly Cloudy
1:55 PM 80.1 °F 52.0 °F 38% 30.20 in 10.0 mi West 10.4 mph - N/A   Partly Cloudy
2:55 PM 80.1 °F 51.1 °F 36% 30.19 in 10.0 mi West 9.2 mph - N/A   Partly Cloudy
3:55 PM 79.0 °F 53.1 °F 40% 30.18 in 10.0 mi West 12.7 mph - N/A   Partly Cloudy
4:55 PM 79.0 °F 55.0 °F 44% 30.18 in 10.0 mi WNW 10.4 mph - N/A   Partly Cloudy
5:55 PM 79.0 °F 52.0 °F 39% 30.17 in 10.0 mi WNW 9.2 mph - N/A   Partly Cloudy
6:55 PM 77.0 °F 52.0 °F 42% 30.17 in 10.0 mi NW 8.1 mph - N/A   Partly Cloudy
7:55 PM 75.9 °F 48.0 °F 37% 30.16 in 10.0 mi NNW 12.7 mph - N/A   Partly Cloudy
8:55 PM 73.0 °F 48.9 °F 42% 30.16 in 10.0 mi NNW 8.1 mph - N/A   Partly Cloudy
9:55 PM 71.1 °F 48.9 °F 45% 30.17 in 10.0 mi North 6.9 mph - N/A   Partly Cloudy
10:55 PM 69.1 °F 50.0 °F 51% 30.17 in 10.0 mi North 5.8 mph - N/A   Clear
11:55 PM 64.9 °F 51.1 °F 61% 30.17 in 10.0 mi Calm Calm - N/A   Clear